Regional Weather Roundup
Issued by NWS Raleigh/Durham, NC

Home | Current Version | Previous Version | Text Only | Print | Product List | Glossary On
Versions: 1 2 3 4 5 6 7 8 9 10 11 12 13 14 15 16 17 18 19 20 21 22 23 24 25 26 27 28 29 30 31 32 33 34 35 36 37 38 39 40 41 42 43 44 45 46 47 48 49 50
547
ASUS42 KRAH 291210
RWRRAH
NORTH CAROLINA WEATHER ROUNDUP
NATIONAL WEATHER SERVICE RALEIGH NC
800 AM EDT FRI APR 29 2016

NOTE: "FAIR" INDICATES FEW OR NO CLOUDS BELOW 12,000 FEET WITH NO
SIGNIFICANT WEATHER AND/OR OBSTRUCTIONS TO VISIBILITY.

NCZ001-053-055-056-065-067-291300-
WESTERN NORTH CAROLINA

CITY           SKY/WX    TMP DP  RH WIND       PRES   REMARKS
ASHEVILLE      SUNNY     63  49  60 N5        30.08R
JEFFERSON      SUNNY     59  44  58 NW7G22    30.07R
MORGANTON      SUNNY     63  58  83 CALM      30.07R
HICKORY        FOG       60  60 100 CALM      30.03R VSB 1/4
RUTHERFORDTON  SUNNY     62  56  80 CALM      30.03R
MOUNT AIRY     PTSUNNY   63  60  91 CALM      30.04S
BOONE          SUNNY     58  48  70 CALM      30.10R
$$

NCZ021-022-025-041-071-084-088-291300-
CENTRAL NORTH CAROLINA

CITY           SKY/WX    TMP DP  RH WIND       PRES   REMARKS
CHARLOTTE      PTSUNNY   64  60  87 N7        30.02R
GREENSBORO     FOG       59  59 100 NW5       30.01R VSB 3/4
WINSTON-SALEM  CLOUDY    59  57  93 NW3       30.03R
RALEIGH-DURHAM FOG       60  59  96 VRB5      30.00R VSB 1/2
FORT BRAGG     CLOUDY    66  64  93 N8        29.96R
FAYETTEVILLE   CLOUDY    68  64  87 N10       29.95R
BURLINGTON     FOG       59  58  96 N3        30.00R VSB 1
LAURINBURG     CLOUDY    68  63  84 N5        29.97R
$$

NCZ011-015-027-028-043-044-047-080-103-291300-
NORTHEASTERN NORTH CAROLINA

CITY           SKY/WX    TMP DP  RH WIND       PRES   REMARKS
ROCKY MT-WILSO CLOUDY    59  58  96 N9        29.98R FOG
GREENVILLE     CLOUDY    59  59 100 N8        29.99R FOG
WASHINGTON     FOG       59  58  98 N6        29.96R VSB 3/4
ELIZABETH CITY CLOUDY    56  54  93 N14       29.98R
MANTEO         NOT AVBL
CAPE HATTERAS  PTSUNNY   63  61  93 NE8       29.92R
$$

NCZ078-087-090-091-093-098-101-291300-
SOUTHEASTERN NORTH CAROLINA

CITY           SKY/WX    TMP DP  RH WIND       PRES   REMARKS
LUMBERTON      CLOUDY    67  65  93 N5        29.96R
GOLDSBORO      CLOUDY    63  63 100 N8        29.95R
KINSTON        CLOUDY    61  61 100 N9        29.97R FOG
KENANSVILLE    CLOUDY    64  64  98 CALM      29.96R FOG
NEW BERN       CLOUDY    63  61  93 NW6       29.95R
CHERRY POINT   CLOUDY    65  63  93 NE10      29.94R FOG
BEAUFORT       CLOUDY    66  64  93 NE9       29.92R
JACKSONVILLE   CLOUDY    67  64  90 N9        29.93R
WILMINGTON     SUNNY     70  65  84 NW7       29.93R
$$





USA.gov is the U.S. government's official web portal to all federal, state and local government web resources and services.